Flag for Germany Weather past 2 weeks in Marburg, Hesse, Germany

Now
67 °F

Light rain. Overcast.


Feels Like: 67 °F
Forecast: 50 / 64 °F
Wind: 2 mph from Northwest

Location: Giessen

Current Time: Sep 1, 2015 at 8:52:48 AM

Latest Report: Sep 1, 2015 at 8:00 AM


Visibility: 11 mi

Pressure: 29.80 "Hg

Humidity: 87%

Dew point: 63 °F

Location of MarburgLocation

Historic Weather in Marburg — Graph

°F

Marburg temperature yesterday

Maximum temperature yesterday: 90 °F (at 4:00 PM)
Minimum temperature yesterday: 63 °F (at 7:00 AM)
Average temperature yesterday: 76 °F

Past Weeks' High & Low Weather Summary

 TemperatureHumidityPressure
High90 °F (Aug 31, 4:00 PM)100% (Aug 21, 8:00 AM)30.30 "Hg (Aug 21, 8:00 AM)
Low49 °F (Aug 19, 7:00 AM)24% (Aug 31, 3:00 PM)29.65 "Hg (Aug 24, 5:00 PM)
Average65 °F73%30.00 "Hg
* Reported Aug 17 8:00 AM — Sep 1 8:00 AM, Marburg, Weather by CustomWeather, © 2015

Note: Actual official high and low records may vary slightly from our data, if they occured in-between our weather recording intervals... More about our weather records

Advertising

Marburg weather history for previous 24 hours

 ConditionsComfort  
Time TempWeatherWind HumidityBarometerVisibility
8:00 AM
Tue, Sep 1
67 °FLight rain. Overcast.2 mph87%29.80 "Hg11 mi
7:00 AM65 °FOvercast.1 mph87%29.80 "Hg13 mi
6:00 AM65 °FOvercast.2 mph90%29.81 "Hg14 mi
5:00 AM63 °FOvercast.2 mph93%29.83 "Hg11 mi
4:00 AM65 °FClear.1 mph88%29.82 "Hg17 mi
3:00 AM68 °FOvercast.1 mph80%29.82 "Hg22 mi
2:00 AM68 °FClear.2 mph79%29.83 "Hg22 mi
1:00 AM72 °FPassing clouds.2 mph69%29.81 "Hg25 mi
11:00 PM
Mon, Aug 31
74 °FPassing clouds.5 mph54%29.79 "Hg34 mi
10:00 PM72 °FClear.3 mph58%29.78 "Hg28 mi
9:00 PM77 °FPassing clouds.5 mph46%29.78 "Hg37 mi
8:00 PM83 °FSunny.7 mph33%29.77 "Hg43 mi
7:00 PM87 °FScattered clouds.8 mph27%29.77 "Hg16 mi
6:00 PM89 °FSunny.9 mph29%29.77 "Hg11 mi
5:00 PM90 °FScattered clouds.9 mph29%29.78 "Hg7 mi
4:00 PM90 °FSunny.9 mph28%29.80 "Hg6 mi
3:00 PM90 °FSunny.9 mph24%29.83 "Hg12 mi
2:00 PM90 °FSunny.2 mph39%29.83 "Hg28 mi
1:00 PM85 °FSunny.3 mph48%29.86 "Hg19 mi
12:00 PM81 °FPassing clouds.2 mph61%29.89 "Hg16 mi
11:00 AM77 °FOvercast.2 mph70%29.91 "Hg15 mi
10:00 AM72 °FPartly sunny.1 mph76%29.92 "Hg11 mi
9:00 AM68 °FSunny.2 mph90%29.93 "Hg6 mi
8:00 AM64 °FFog.1 mph93%29.95 "Hg4 mi
Weather by CustomWeather, © 2015

See weather overviewHow to use our weather pages